Hoonah, AK

12:00 PM AKDT on March 25, 2017 (GMT -0800)
Hoonah

Weather History for PAOH - February, 2014

Change the Weather History Date:

Thursday, February 20, 2014

  Actual Average Record
Temperature  
Mean Temperature 26 °F -  
Max Temperature 32 °F 35 °F 44 °F (1998)
Min Temperature 20 °F 28 °F 16 °F (2017)
Degree Days  
Heating Degree Days 39    
Moisture  
Dew Point 25 °F    
Average Humidity 98    
Maximum Humidity 100    
Minimum Humidity 85    
Precipitation  
Precipitation 0.00 in - - ()
Sea Level Pressure  
Sea Level Pressure 29.92 in    
Wind  
Wind Speed 1 mph (ENE)    
Max Wind Speed 6 mph    
Max Gust Speed -    
Visibility 8 miles    
Events Snow    
Averages and records for this station are not official NWS values.
T = Trace of Precipitation, MM = Missing Value Source: NWS Daily Summary

Daily Weather History Graph

Daily Weather History Graph

Search for Another Location

Airport or City:

Trip Planner

Search our weather history database for the weather conditions in past years. The results will help you decide how hot, cold, wet, or windy it might be!

Date:

Astronomy

Feb. 20, 2014 Rise Set
Actual Time 7:19 AM AKST 5:11 PM AKST
Civil Twilight 6:39 AM AKST 5:52 PM AKST
Nautical Twilight 5:53 AM AKST 6:38 PM AKST
Astronomical Twilight 5:08 AM AKST 7:23 PM AKST
Moon No Moon Rise 8:49 AM AKST (2/20)
Length of Visible Light 11h 12m
Length of Day
9h 51m
Waning Gibbous, 69% of the Moon is Illuminated
Feb 20
Waning Gibbous
Feb 22
Last Quarter
Feb 28
New
Mar 8
First Quarter
Mar 16
Full

Hourly Weather History & Observations

Time (AKST) Temp. Windchill Dew Point Humidity Pressure Visibility Wind Dir Wind Speed Gust Speed Precip Events Conditions
12:56 AM 20.1 °F - 20.1 °F 100% 29.70 in 10.0 mi Calm Calm - N/A   Mostly Cloudy
1:56 AM 21.0 °F - 21.0 °F 100% 29.71 in 10.0 mi Calm Calm - N/A   Mostly Cloudy
2:56 AM 23.0 °F - 23.0 °F 100% 29.71 in 10.0 mi Calm Calm - N/A   Overcast
3:35 AM 24.8 °F - 24.8 °F 100% 29.72 in 4.0 mi Calm Calm - 0.00 in Snow Light Snow
3:56 AM 24.1 °F - 24.1 °F 100% 29.73 in 4.0 mi Calm Calm - 0.00 in Snow Light Snow
4:56 AM 27.1 °F 23.2 °F 27.1 °F 100% 29.74 in 4.0 mi ENE 3.5 mph - 0.00 in Snow Light Snow
5:08 AM 26.6 °F 22.6 °F 26.6 °F 100% 29.73 in 4.0 mi ENE 3.5 mph - 0.00 in Snow Light Snow
5:56 AM 26.6 °F 22.6 °F 26.6 °F 100% 29.74 in 4.0 mi NE 3.5 mph - N/A Snow Light Snow
6:56 AM 27.1 °F 21.8 °F 27.1 °F 100% 29.77 in 6.0 mi NNE 4.6 mph - 0.00 in Snow Light Snow
7:56 AM 28.0 °F 24.2 °F 28.0 °F 100% 29.79 in 4.0 mi North 3.5 mph - 0.00 in Snow Light Snow
8:56 AM 26.6 °F - 26.6 °F 100% 29.81 in 7.0 mi Calm Calm - N/A Snow Light Snow
9:56 AM 28.0 °F - 28.0 °F 100% 29.85 in 10.0 mi Calm Calm - 0.00 in   Overcast
10:56 AM 29.1 °F - 29.1 °F 100% 29.88 in 10.0 mi Calm Calm - N/A   Overcast
11:56 AM 30.2 °F - 28.4 °F 93% 29.90 in 10.0 mi Calm Calm - N/A   Overcast
12:56 PM 32.0 °F - 29.1 °F 89% 29.92 in 10.0 mi Calm Calm - N/A   Scattered Clouds
1:56 PM 32.0 °F - 28.0 °F 85% 29.94 in 10.0 mi Calm Calm - N/A   Overcast
2:56 PM 32.0 °F 28.7 °F 29.1 °F 89% 29.97 in 10.0 mi East 3.5 mph - 0.00 in   Overcast
3:56 PM 32.0 °F 26.4 °F 29.1 °F 89% 29.99 in 10.0 mi East 5.8 mph - 0.00 in   Overcast
4:56 PM 31.1 °F 25.4 °F 30.0 °F 96% 30.01 in 10.0 mi East 5.8 mph - N/A   Partly Cloudy
5:56 PM 26.1 °F - 26.1 °F 100% 30.03 in 10.0 mi Calm Calm - N/A   Partly Cloudy
6:56 PM 25.2 °F 20.9 °F 25.2 °F 100% 30.06 in 10.0 mi East 3.5 mph - N/A   Partly Cloudy
7:56 PM 22.1 °F 17.4 °F 22.1 °F 100% 30.08 in 10.0 mi ESE 3.5 mph - N/A   Partly Cloudy
8:56 PM 21.2 °F 16.4 °F 21.2 °F 100% 30.10 in 10.0 mi ESE 3.5 mph - N/A Snow Light Snow
9:20 PM 23.0 °F 18.4 °F 23.0 °F 100% 30.11 in 5.0 mi ESE 3.5 mph - 0.00 in Snow Light Snow
9:34 PM 24.8 °F - 24.8 °F 100% 30.12 in 2.5 mi Calm Calm - 0.00 in Snow Light Snow
9:42 PM 24.8 °F 20.5 °F 24.8 °F 100% 30.12 in 3.0 mi East 3.5 mph - 0.00 in Snow Light Snow
9:56 PM 23.0 °F 18.4 °F 23.0 °F 100% 30.13 in 10.0 mi East 3.5 mph - 0.00 in Snow Light Snow
10:56 PM 21.0 °F 16.2 °F 21.0 °F 100% 30.15 in 10.0 mi ENE 3.5 mph - 0.00 in   Mostly Cloudy
11:56 PM 20.1 °F - 20.1 °F 100% 30.17 in 10.0 mi Calm Calm - N/A   Clear